Погода Жангизтобе

Погода Жангизтобе : погода сейчас, прогноз погоды и архив. Всё, что Вы хотите узнать о погоде Жангизтобе!

Хотите узнать прогноз погоды Жангизтобе? Тогда Вам сюда: Погода Жангизтобе

Поиск расширенной информации на нашем сайте:

Другие новости

Новости СМИ2

Главная страница сайта

Новости сайта

03.07.2017

Напоминаем, что на нашем специализированном сайте Метеоцентр.Азия вы можете получить высокодетализированные автоматические прогнозы погоды по пунктам России, СНГ и мира в авиационном формате (включающие направление и скорость ветра, видимость, явления погоды, количество и форму облачности, нижнюю и верхнюю границу облачности).

Рекомендуем: poselki-biznes-klassa купить

Погода Жангизтобе - сегодня

Время (UTC), дата Ветер
(°,м/с) 
Видим.   Явления Облачность Т
(°С)
Тd
(°С)
f(%) Тe
(°С)
Pmin
(гПа)
dP
(гПа)
Po
(мм)
O2
(г/м3)
Тmin Tmax R s Состояние
почвы
09 22.06.18 260 (З) 20000 м    6/6 1000 м 
[Cu hum]
+33 +0.2 12 +33  1002.5  -1.7  715  257           
12 22.06.18 160 (Ю) 20000 м    8/6 1000 м верхняя 
[Cu hum|Ci sp]
+32.6 +0.9 13 +33  1001.7  -0.8  714  257           
15 22.06.18 190 (Ю) 20000 м    6/6 1000 м кучево-дожд. 
[Cb calv]
+27.6 +3.9 22 +28  1003.2  0.6  715  261    +34       
18 22.06.18 170 (Ю) н/о    4/4 1000 м 
[Sc]
+23.6 +3.2 26 +24  1003.5  -0.4  715  264    +34       
21 22.06.18 180 (Ю) н/о    3/3 1000 м 
[Sc]
+18.4 +3.9 38 +19  1003.5  -0.8  714  269           
00 23.06.18 200 (Ю) 20000 м    8/6 1000 м средняя 
[Sc|Ac lent]
+21.8 +4.7 33 +22  1002.8  -0.1  714  266           
06 23.06.18 140 (ЮВ) 20000 м    8/8 1000 м 
[Cu med, cong]
+34.2 +0.1 11 +34  999.4  -1.9  713  255  +18.1         
09 23.06.18 150 (ЮВ) 20000 м    8/8 1000 м кучево-дожд. 
[Cb calv]
+33.8 -2.1 10 +34  999.6  0.1  713  256           
12 23.06.18 200 (Ю) 3{18}  20000 м  {гроза, ливн. осадки}  9/9 1000 м кучево-дожд. 
[Cb calv]
+33.2 -2.9 10 +33  997.7  -1.9  712  256           
15 23.06.18 270 (З) 20000 м    9/9 1000 м 
[Sc]
+25 +11.1 42 +29  1001.9  2.9  714  261    +35.5  0.0     
18 23.06.18 тихо ()   н/о    3/0 средняя 
[Ac lent]
+19.2 +11.4 61 +23  1004.2  1.2  715  267    +35.5  0.0     
21 23.06.18 тихо ()   н/о    6/6 1000 м 
[Sc]
+16.6 +11.6 72 +21  1003.8  -0.8  714  269           
00 24.06.18 200 (Ю) 20000 м    8/8 1000 м 
[Sc]
+17 +11.6 70 +22  1004.7  0.9  715  269           
03 24.06.18 310 (СЗ) 20000 м    9/9 1000 м 
[Sc]
+20.4 +11.6 57 +25  1004.1  715  266           
06 24.06.18 тихо ()   20000 м    10/10 1000 м 
[Sc]
+25.5 +10.2 38 +28  1002.3  -0.9  714  261  +16.5         
09 24.06.18 180 (Ю) 20000 м    8/4 1000 м верхняя 
[Sc|Ci sp]
+27.6 +2.9 20 +28  1001.2  -0.8  713  261           
12 24.06.18 150 (ЮВ) 20000 м    9/9 1000 м 
[Sc]
+30.3 +5.4 21 +30  1000.1  -0.6  713  258           
15 24.06.18 270 (З) 20000 м    6/6 1000 м 
[Sc]
+25.3 +11.7 43 +30  1001.1  0.3  713  261    +31.5       
18 24.06.18 240 (ЮЗ) н/о    9/6 1000 м средняя 
[Sc|Ac lent]
+20.4 +12 59 +25  1002.8  0.8  714  265    +31.5       
21 24.06.18 250 (З) н/о    9/9 1000 м 
[Sc]
+18.5 +11.5 64 +23  1002.3  -0.8  713  267           
00 25.06.18 260 (З) 20000 м    9/9 1000 м 
[Sc]
+19.2 +12.6 66 +26  1004.8  2.5  715  267           
03 25.06.18 160 (Ю) 20000 м  в посл. час ливневой дождь  10/10 1000 м кучево-дожд. 
[Cb calv]
+18 +11.1 64 +23  1006.9  1.7  716  269           
06 25.06.18 150 (ЮВ) 20000 м  в посл. час ливневой дождь  10/10 1000 м кучево-дожд. 
[Cb calv]
+21 +8.3 44 +21  1006.6  0.2  717  267  +17.9       
09 25.06.18 150 (ЮВ) 20000 м  {ливн. осадки}  10/10 1000 м кучево-дожд. 
[Cb calv]
+23.8 +8.9 39 +24  1004.8  -1.2  716  264           
12 25.06.18 130 (ЮВ) 20000 м  {ливн. осадки}  6/6 1000 м 
[Sc]
+21 +8.3 44 +21  1004  -1.3  715  266           
Время (UTC), дата Ветер
(°,м/с) 
Видим.   Явления Облачность Т
(°С)
Тd
(°С)
f(%) Тe
(°С)
Pmin
(гПа)
dP
(гПа)
Po
(мм)
O2
(г/м3)
Тmin Tmax R s Состояние
почвы

Для получения пояснительной информации подведите курсор к названию столбца.

ПОГОДА Жангизтобе - архив

Всё, что Вы хотите узнать о погоде Жангизтобе - удобно и подробно!

Выберите нужную дату (начиная с 1 января 2015* года) и нажмите кнопку "Найти".
Будут отображены архивные сводки погоды по пункту Жангизтобе, начиная с указанной даты.


Отображать данные в формате CSV (для использования в таблицах Excel)


Внимание! Наш архив погоды предназначен исключительно для личного некоммерческого использования в познавательных целях. Если Вам необходимы официальные справки о состоянии погоды (для производственных, юридических, коммерческих и т.п. целей), обращайтесь в органы Росгидромета.

*Примечание: данная дата относится к архиву по метеостанциям СССР (Россия, СНГ, Балтия).
Архив по метеостанциям Зарубежной Европы и Азии (кроме Китая) хранится 10 дней, по другим регионам земного шара (Китай, Африка, Америка, Австралия, Океания) - 1 день.

Жангизтобе - район местоположения метеостанции


Название, широта, долгота, высота метеостанции:
Жангизтобе 49.2°ш. 81.2°д. 455 м над ур. моря [Казахстан]

Дополнительная информация

В oтличие oт бoльшинства пoгoдных сайтoв мы публикуем пoдрoбную метеoинфoрмацию в детальнoм прoфессиoнальнoм фoрмате.

Характеристики температуры и влажнoсти вoздуха измеряются на высoте 2 м в тени вдали oт зданий и деревьев.
Скoрoсть ветра измеряется на высoте 10 м (на урoвне рoста челoвека скoрoсть ветра ниже в 1.5-2 раза). Если метеoстанция нахoдится в гoрoде или в лесу, тo скoрoсть ветра занижена на 2-4 м/с пo сравнению с oткрытым местoм. Скoрoсть ветра над акватoриями крупных рек и oзёр, а также на вершинах хoлмoв на 2-5 м/с выше, чем в oбычных услoвиях.
Атмoсфернoе давление в разных тoчках местнoсти мoжет значительнo oтличаться oт давления на метеoстанции, в зависимoсти oт услoвий рельефа (при пoдъёме на 10 м давление пoнижается примернo на 1 мм рт.ст.).